Beidou DW 60

operational
NORAD ID: 61187 Int'l Des: 2024-168 Owner: CNSA Country: CN Constellation: BeiDou
MEOCIRCULAR

关于 Beidou DW 60

正在加载描述...

实时位置

正在加载3D地球...

即将过境

高度历史

Altitude vs Time

uPlot chart will show altitude changes over time

两行轨道根数

1 61187U 24168C 25298.33725138 -.00000049 00000-0 00000+0 0 9995
2 61187 54.6797 310.3818 0001852 312.1189 226.3413 1.86230452 4880
Epoch: Oct 25, 2025 • Age: 24 hours

当前状态

高度 21538.1 km
速度 3.78 km/s
星下点 43.50°N, 64.78°W
发射日期 Sep 19, 2024
运行时间 1.1 years
类型 navigation

技术详情

分类 Payload
质量 1014.00 kg
干质量 850.00 kg
总质量 1014.00 kg
长度 2.20 m
直径 1.70 m
跨度 10.00 m
形状 Box + 2 Pan
制造商 CAST
平台类型 BD-3M
阶段状态 In Orbit
所有者/国家 CNSA/CN

大型星座

Loading constellations...